Вернуться в каталог

THURAYA 3

АктивенСвязьGEO
NORAD 32404·PAYLOAD·🇦🇪 UAE

Запущен Jan 15, 2008 с Sea Launch Platform

Loading…

TLE

СвежийSource: Space-Track

Эпоха: Sep 14, 2026, 12:23 UTC

1 32404U 08001A   26257.51646199  .00000002  00000-0  00000-0 0  9997
2 32404   6.1400  35.8288 0002376 165.9934  41.3310  1.00274078 68381

Отслеживайте THURAYA 3 в реальном времени с AllMySat

Download on the App Store